Big Piney, WY

10:38 PM MDT on September 23, 2017 (GMT -0600)
Big Piney-Marbleton

Weather History for KBPI - August, 2013

Change the Weather History Date:

Thursday, August 8, 2013

  Actual Average Record
Temperature  
Mean Temperature 59 °F 62 °F  
Max Temperature 78 °F 81 °F 93 °F (2001)
Min Temperature 39 °F 42 °F 29 °F (1976)
Degree Days  
Heating Degree Days 6 4  
Month to date heating degree days 16 28  
Since 1 June heating degree days 257 450  
Since 1 July heating degree days 40 145  
Cooling Degree Days 0 1  
Month to date cooling degree days 0 8  
Year to date cooling degree days 77 32  
Since 1 June cooling degree days 77 32  
Growing Degree Days 8 (Base 50)    
Moisture  
Dew Point 30 °F    
Average Humidity 35    
Maximum Humidity 51    
Minimum Humidity 19    
Precipitation  
Precipitation T in 0.02 in 0.25 in (1998)
Month to date precipitation 0.05 0.18  
Year to date precipitation 2.64 4.15  
Sea Level Pressure  
Sea Level Pressure 29.94 in    
Wind  
Wind Speed 7 mph (SW)    
Max Wind Speed 26 mph    
Max Gust Speed 36 mph    
Visibility 10 miles    
Events      
T = Trace of Precipitation, MM = Missing Value Source: NWS Daily Summary

Daily Weather History Graph

Daily Weather History Graph

Search for Another Location

Airport or City:

Trip Planner

Search our weather history database for the weather conditions in past years. The results will help you decide how hot, cold, wet, or windy it might be!

Date:

Astronomy

Aug. 08, 2013 Rise Set
Actual Time 6:20 AM MDT 8:31 PM MDT
Civil Twilight 5:48 AM MDT 9:02 PM MDT
Nautical Twilight 5:10 AM MDT 9:40 PM MDT
Astronomical Twilight 4:28 AM MDT 10:22 PM MDT
Moon 8:14 AM MDT (8/8) 9:07 PM MDT (8/8)
Length of Visible Light 15h 13m
Length of Day
14h 11m
Waxing Crescent, 3% of the Moon is Illuminated
Aug 8
Waxing Crescent
Aug 14
First Quarter
Aug 20
Full
Aug 28
Last Quarter
Sep 5
New

Hourly Weather History & Observations

Time (MDT) Temp. Windchill Dew Point Humidity Pressure Visibility Wind Dir Wind Speed Gust Speed Precip Events Conditions
12:53 AM 54.0 °F - 18.0 °F 24% 29.88 in 10.0 mi North 9.2 mph - N/A   Clear
1:53 AM 51.1 °F - 19.0 °F 28% 29.88 in 10.0 mi SE 3.5 mph - N/A   Clear
2:53 AM 46.9 °F - 19.9 °F 34% 29.89 in 10.0 mi Calm Calm - N/A   Clear
3:53 AM 48.0 °F - 21.0 °F 34% 29.89 in 10.0 mi SSW 3.5 mph - N/A   Clear
4:53 AM 44.1 °F - 24.1 °F 45% 29.93 in 10.0 mi Calm Calm - N/A   Clear
5:53 AM 43.0 °F 41.3 °F 21.9 °F 43% 29.93 in 10.0 mi ENE 3.5 mph - N/A   Clear
6:53 AM 41.0 °F - 21.9 °F 47% 29.97 in 10.0 mi Calm Calm - N/A   Clear
7:53 AM 52.0 °F - 23.0 °F 32% 29.95 in 10.0 mi NE 3.5 mph - N/A   Clear
8:53 AM 61.0 °F - 27.0 °F 27% 29.96 in 10.0 mi East 5.8 mph - N/A   Clear
9:53 AM 66.0 °F - 30.9 °F 27% 29.96 in 10.0 mi Calm Calm - N/A   Clear
10:53 AM 72.0 °F - 37.0 °F 28% 29.94 in 10.0 mi South 10.4 mph - N/A   Clear
11:53 AM 75.9 °F - 33.1 °F 21% 29.93 in 10.0 mi SSE 6.9 mph - N/A   Clear
12:53 PM 75.9 °F - 33.1 °F 21% 29.92 in 10.0 mi West 8.1 mph - N/A   Clear
1:53 PM 75.0 °F - 30.0 °F 19% 29.93 in 10.0 mi WNW 8.1 mph - N/A   Clear
2:53 PM 72.0 °F - 28.0 °F 20% 29.95 in 10.0 mi WNW 19.6 mph 27.6 mph N/A   Clear
3:53 PM 73.0 °F - 30.9 °F 21% 29.92 in 10.0 mi WNW 23.0 mph 26.5 mph N/A   Partly Cloudy
4:53 PM 71.1 °F - 36.0 °F 28% 29.96 in 10.0 mi SW 8.1 mph - N/A   Clear
5:53 PM 73.9 °F - 30.9 °F 21% 29.95 in 10.0 mi SSE 9.2 mph - N/A   Clear
6:53 PM 71.1 °F - 36.0 °F 28% 29.99 in 10.0 mi SSW 11.5 mph - N/A   Scattered Clouds
7:53 PM 66.9 °F - 36.0 °F 32% 29.96 in 10.0 mi SW 13.8 mph - N/A   Mostly Cloudy
8:53 PM 63.0 °F - 37.9 °F 40% 29.96 in 10.0 mi WNW 6.9 mph - N/A   Overcast
9:53 PM 64.0 °F - 36.0 °F 35% 29.97 in 10.0 mi WSW 6.9 mph - N/A   Overcast
10:53 PM 63.0 °F - 39.0 °F 41% 29.97 in 10.0 mi SSW 18.4 mph - N/A   Overcast
11:53 PM 61.0 °F - 43.0 °F 52% 29.96 in 10.0 mi East 5.8 mph - 0.00 in   Overcast